KINEIS-1E

Last updated on Thu Oct 23 2025 00:02:49 GMT+0000 (Coordinated Universal Time)

1 60083U 24114E 25295.51325073 .00001786 00000+0 24327-3 0 9990 2 60083 98.0044 315.5862 0002025 120.6211 239.5201 14.79970222 72224
UTC large
Height (km)
Speed (km/s)
/
Latitude / Longitude
Inclination (degrees)
Orbital Period (minutes)
Azimuth
Elevation
Range (km)
Doppler Factor

Next 0 passes for location: London (51.5072 / 0.1276)

Sorry there are no passes over London.